www.pogodaiklimat.ru

Погода и климат >> Архив погоды >> Россия >> Краснодарский край >> Красная Поляна


ПОГОДА в Красной Поляне

  • Прогноз погоды в Красной Поляне
  • Монитор погоды в Красной Поляне
  • Климат города

АРХИВ ПОГОДЫ в Красной Поляне

Время (UTC), дата Ветер
(напр.,м/с)
 
Видим.   Явления Облачность Т
(С)
Тd
(С)
f
(%)
Тe
(С)
Тes
(С)
Комфортность P
(гПа)
Po
(гПа)
Тmin
(С)
Tmax
(С)
R
(мм)
S
(см)
00 19.03 штиль 0 11 км {ливн. осадки} 10/10 210 м
[Sc]
+2.6 +2.5 99 +1 +1 1015.7 947.5
03 19.03 С 2 20 км 10/0
[Ci sp]
+1.8 +1.2 96 -2 -2 1014.8 946.5 +1.7 1
06 19.03 В 2 20 км 10/8 1500 м
[Sc Ac As]
+3.5 +0.9 83 +1 +1 1013.6 945.8 +1.5
09 19.03 В 1 20 км 10/3 300 м
[St Ac As]
+4.8 +1.8 81 +4 +6 1013.0 945.5
12 19.03 В 2 20 км {дождь} 10/0
[As op]
+6.8 +1.1 67 +5 +6 1011.5 944.6
15 19.03 СВ 2 20 км 10/0 2000 м
[Ac As]
+6.9 +2.0 71 +5 +5 1008.9 942.2 +7.0
18 19.03 штиль 0 13 км 10/0
[Ac As]
+5.3 +2.6 83 +4 +4 1008.2 941.2
21 19.03 СВ 2 20 км 10/3 1000 м
[Sc Ac As]
+5.4 +1.9 78 +3 +3 1006.5 939.6
00 20.03 В 2 20 км 10/0
[Ac As]
+5.0 +1.8 80 +2 +2 1005.5 938.6
03 20.03 В 1 20 км слабый дождь 10/0 1140 м
[As op]
+5.0 +2.4 83 +4 +4 1005.6 938.7 +4.2 0.0
06 20.03 З 1 3600 м слабый дождь 10/0 90 м
[As op]
+4.3 +3.9 97 +3 +4 1007.0 939.8
09 20.03 ЮЗ 2 19 км слабый дождь 10/0 900 м
[As op]
+3.7 +3.1 96 +1 +3 1009.1 941.6
12 20.03 З 2 20 км слабый дождь 10/0 1110 м
[As op]
+3.2 +1.1 86 0 +2 1013.1 945.2
15 20.03 З 2 20 км {дождь} 10/10 840 м
[Sc]
+2.8 -0.8 77 -0 -0 1015.6 947.4 +5.6 13
18 20.03 З 1 17 км {дождь} 10/10 1350 м
[Sc]
+1.3 +0.4 94 -1 -1 1017.0 948.4
21 20.03 ЮВ 1 12 км 10/6 1500 м
[Sc Ac cast]
+0.6 +0.3 98 -2 -2 1016.9 948.1
00 21.03 Ю 1 13 км 10/5 60 м
[Sc Ac As]
+0.8 +0.1 95 -1 -1 1016.3 947.6
03 21.03 штиль 0 3200 м дымка 10/10 60 м
[Sc]
+0.7 +0.6 99 -1 -1 1016.6 947.9 +0.5
06 21.03 В 1 20 км 10/10 1000 м
[Sc diur, vesp]
+2.0 -0.6 83 0 0 1017.0 948.6
09 21.03 ЮЗ 2 20 км 10/10 1350 м
[Sc diur, vesp]
+3.6 -1.2 71 +1 +1 1017.3 949.2
12 21.03 ЮЗ 2 20 км 10/8 1000 м
[Sc Ac As]
+5.0 -2.1 60 +3 +3 1017.1 949.3
15 21.03 З 1 20 км в посл. час ливневой снег 10/10 1350 м
[Cb cap]
+2.0 +0.5 90 0 0 1018.8 950.2 +5.3 0.2
18 21.03 штиль 0 10 км {ливн. осадки} 4/4 600 м
[Sc diur, vesp]
+0.5 -0.1 96 -1 -1 1019.4 950.4
21 21.03 штиль 0 1100 м дымка 10/10 300 м
[Sc diur, vesp]
+0.8 +0.8 100 -1 -1 1019.7 950.8
00 22.03 штиль 0 1000 м дымка 10/10 300 м
[Sc diur, vesp]
+0.1 -0.3 97 -1 -1 1019.7 950.6
03 22.03 В 1 8000 м 10/10 90 м
[Sc diur, vesp]
-1.1 -1.1 100 -3 -3 1020.8 951.3 -1.2
06 22.03 В 1 12 км 4/4 1000 м
[Cu med, cong]
+2.7 -3.8 62 +2 +5 1020.8 952.2 -1.6
09 22.03 ЮЗ 2 20 км 8/4 1000 м
[Sc diur, vesp Ac As Ci sp]
+7.2 -3.4 47 +6 +11 1019.1 951.7
12 22.03 ЮЗ 3 18 км 10/10 660 м
[Sc diur, vesp]
+6.1 +1.2 71 +3 +3 1019.8 952.2
15 22.03 З 1 19 км {ливн. осадки} 10/8 900 м
[Sc diur, vesp Ac As Ci sp]
+4.2 +1.6 83 +3 +3 1020.6 952.5 +9.1 0.3
18 22.03 штиль 0 16 км {ливн. осадки} 10/10 500 м
[Sc diur, vesp]
+3.3 +2.0 91 +2 +2 1021.6 953.2
21 22.03 штиль 0 14 км 10/10 630 м
[Sc]
+2.7 +1.8 94 +1 +1 1022.4 953.8
00 23.03 Ю 1 11 км 10/10 660 м
[Sc]
+2.6 +2.0 96 +1 +1 1022.3 953.7
03 23.03 штиль 0 20 км 10/10 800 м
[Sc]
+2.5 +1.5 93 +1 +1 1022.7 954.0 +2.4
06 23.03 штиль 0 20 км 9/9 750 м
[Sc]
+3.9 +1.4 84 +3 +4 1022.8 954.4
09 23.03 ЮЗ 2 20 км 4/3 600 м
[Cu hum Ac cast]
+8.4 +1.5 62 +7 +15 1021.3 954.1
12 23.03 ЮЗ 3 20 км 3/3 800 м
[Cu hum]
+7.9 +2.4 68 +5 +10 1021.1 953.8
15 23.03 ЮЗ 2 19 км 10/10 630 м
[Sc]
+4.9 +2.8 86 +2 +2 1023.3 955.2 +9.0
18 23.03 ЮЗ 1 20 км 10/10 360 м
[Sc]
+4.3 +2.6 89 +3 +3 1025.2 956.8
21 23.03 штиль 0 18 км 10/9 660 м
[Sc Ci fib]
+4.0 +2.8 92 +3 +3 1025.9 957.4
00 24.03 штиль 0 10 км 10/10 <50 м
[Sc Ci fib]
+2.3 +1.9 97 +1 +1 1026.5 957.5
03 24.03 ЮЗ 1 10 км 10/10 120 м
[Sc]
+1.5 +1.5 100 -1 -1 1026.8 957.6 +1.2
06 24.03 ЮЗ 1 17 км в посл. час туман 3/3 1000 м
[Cu med, cong]
+3.7 +2.5 92 +2 +7 1026.2 957.6
09 24.03 ЮЗ 3 20 км ясно +10.0 +0.3 51 +8 +19 опасность
простуды
1023.6 956.6
12 24.03 ЮЗ 4
{10}
20 км 4/4 1000 м
[Cu med, cong]
+8.8 +2.8 66 +6 +9 1023.4 956.2
15 24.03 ЮЗ 1 20 км 8/8 900 м
[Cu med, cong]
+7.5 +2.6 71 +7 +7 1023.9 956.3 +10.7
18 24.03 С 1 19 км ясно +4.9 +1.9 81 +4 +4 1024.5 956.3
21 24.03 штиль 0 18 км ясно +2.7 +1.2 90 +2 +2 1024.0 955.3
00 25.03 штиль 0 20 км ясно +1.5 +0.6 94 0 0 1023.4 954.4
03 25.03 штиль 0 20 км ясно +1.5 +0.6 94 0 0 1023.4 954.4
06 25.03 ЮЗ 1 20 км 10/0
[Ci sp]
+4.8 +1.8 81 +4 +9 1021.5 953.4 +0.5
09 25.03 ЮЗ 2 20 км 6/0
[Ac cast Ci]
+12.7 +1.1 45 +12 +21 1017.3 951.3
12 25.03 ЮЗ 3 20 км 10/0
[Ac As Ci sp]
+11.9 +2.1 51 +11 +13 1016.1 950.0
15 25.03 ЮЗ 1 20 км 10/0
[Ac As]
+8.6 +1.0 59 +8 +8 1017.2 950.3 +13.7
18 25.03 штиль 0 9000 м в посл. час ливневой дождь 10/10 1500 м
[Cb cap]
+6.4 +5.2 92 +5 +5 1018.1 950.7
21 25.03 штиль 0 7000 м {ливн. осадки} 10/10 750 м
[Sc diur, vesp]
+5.8 +5.5 98 +5 +5 1017.2 949.7

 

Местоположение метеостанции Красная Поляна (Краснодарский край, Россия): широта 43.68 долгота 40.20 высота над уровнем моря 567 м.

В архиве по умолчанию представлена погода в Красной Поляне за последнюю неделю. Архивные данные за месяц целиком и за предыдущие месяцы, начиная с января 2011 года, Вы можете получить, выбрав интересующий диапазон дат из раскрывающегося списка и нажав кнопку "Ввод!".

Внимание! Время в таблицах - всемирное. Для получения местного времени необходимо прибавить поправку, которая в Красной Поляне равна 3 ч.

Смотрите также архив погоды в соседних городах и на ближайших метеорологических станциях:

Погода в Кепше (Краснодарский край, Россия) (14 км)
Погода в Гузерипле (Адыгея, Россия) (36 км)
Погода в Сочи (Краснодарский край, Россия) (36 км)
Погода в Сочи аэропорту (Адлер) (Краснодарский край, Россия) (37 км)
Погода в Псебае (Краснодарский край, Россия) (68 км)
Погода в Шунтуке (Адыгея, Россия) (88 км)
Погода в Горном (Краснодарский край, Россия) (100 км)
Погода в Туапсе (Краснодарский край, Россия) (102 км)
Погода в Майкопе (Адыгея, Россия) (105 км)
Погода в Зеленчукской (Карачаево-Черкессия, Россия) (112 км)

Пояснения к столбцам:

Ветер - указаны скорость ветра в м/с - средняя за 10 мин, порывы в срок и между сроками (в фигурных скобках) и направление, откуда дует ветер: С - северный, СВ - северо-восточный, В - восточный, ЮВ - юго-восточный, Ю - южный, ЮЗ - юго-западный, З - западный, СЗ - северо-западный.
Видимость - горизонтальная дальность видимости в метрах или километрах. При видимости от 1 до 10 км при отсутствии осадков обычно наблюдается дымка, при ухудшении видимости до 1 км и менее - туман. В сухую погоду видимость может ухудшаться дымом, пылью или мглою.
Явления - указаны атмосферные явления, наблюдавшиеся в срок или в последний час перед сроком; фигурными скобками обозначены явления, наблюдавшиеся между сроками (за 1-3 часа до срока); квадратными скобками обозначены град или гололедные отложения с указанием их диаметра в мм.
Облачность - указаны через наклонную черту общая и нижняя облачность в баллах и высота нижней границы облаков в метрах; квадратными скобками обозначены формы облаков: Ci - перистые, Cs - перисто-слоистые, Cc - перисто-кучевые, Ac - высококучевые, As - высокослоистые, Sc - слоисто-кучевые, Ns - слоисто-дождевые, Cu - кучевые, Cb - кучево-дождевые. Подробнее классификацию облаков см. в Атласе облаков (PDF).
T - Температура воздуха - температура, измеренная на высоте 2 м над землей.
Td - Температура точки росы - температура, при понижении до которой содержащийся в воздухе водяной пар достигнет насыщения.
f - Относительная влажность воздуха - влажноcть воздуха, измеренная на высоте 2 м над землей.
Te - Эффективная температура - температура, которую ощущает одетый по сезону человек в тени. Характеристика душности погоды. При расчете учитывается влияние влажности воздуха и скорости ветра на теплоощущения человека.
Tes - Эффективная температура на солнце - температура, которую ощущает человек, с поправкой на солнечный нагрев. Характеристика знойности погоды. Зависит от высоты солнца над горизонтом, облачности и скорости ветра. Ночью, в пасмурную погоду, а также при ветре 12 м/с и более поправка равна нулю.
P - Атмосферное давление - приведенное к уровню моря атмосферное давление.
Po - Атмосферное давление - измеренное на уровне метеостанции атмосферное давление.
Tmin - Минимальная температура - минимум температуры воздуха на высоте 2 м над землей.
Tmax - Максимальная температура - максимум температуры воздуха на высоте 2 м над землей.
R - Количество осадков - Количество выпавших осадков, мм. При наведении курсора мыши на число - период времени, за который выпало указанное количество осадков.
S - Снежный покров - Высота снежного покрова, см. При наведении курсора мыши на число - состояние снежного покрова и степень покрытия местности в баллах.